Weather History for Cape Girardeau, MO

Change the Weather History Date:

Sunday, December 16, 2012

  Actual Average Record
Temperature  
Mean Temperature 54 °F 36 °F  
Max Temperature 60 °F 44 °F 66 °F (1984)
Min Temperature 47 °F 27 °F -2 °F (1989)
Degree Days  
Heating Degree Days 11 29  
Month to date heating degree days 254 437  
Since 1 July heating degree days 1193 1288  
Cooling Degree Days 0 0  
Month to date cooling degree days 0 0  
Year to date cooling degree days 1784 1453  
Growing Degree Days 2 (Base 50)    
Moisture  
Dew Point 52 °F    
Average Humidity 84    
Maximum Humidity 100    
Minimum Humidity 67    
Precipitation  
Precipitation 0.00 in 0.13 in 2.73 in (2001)
Month to date precipitation 0.90 2.31  
Year to date precipitation 26.18 44.87  
Sea Level Pressure  
Sea Level Pressure 29.73 in    
Wind  
Wind Speed 4 mph (SSW)    
Max Wind Speed 13 mph    
Max Gust Speed 16 mph    
Visibility 5 miles    
Events Fog    
T = Trace of Precipitation, MM = Missing Value Source: NWS Daily Summary

Daily Weather History Graph

Daily Weather History Graph

Search for Another Location

Airport:

Trip Planner

Search our weather history database for the weather conditions in past years. The results will help you decide how hot, cold, wet, or windy it might be!

Date:

Astronomy

Dec. 16, 2012 Rise Set
Actual Time 7:05 AM CST 4:42 PM CST
Civil Twilight 6:36 AM CST 5:11 PM CST
Nautical Twilight 6:04 AM CST 5:44 PM CST
Astronomical Twilight 5:32 AM CST 6:16 PM CST
Moon 9:43 AM CST (12/16) 8:52 PM CST (12/16)
Length of Visible Light 10h 34m
Length of Day
9h 36m
Waxing Crescent, 16% of the Moon is Illuminated
Dec 16
Waxing Crescent
Dec 19
First Quarter
Dec 28
Full
Jan 4
Last Quarter
Jan 11
New

Hourly Weather History & Observations

Time (CST) Temp. Dew Point Humidity Pressure Visibility Wind Dir Wind Speed Gust Speed Precip Events Conditions
12:53 AM 57.0 °F 55.0 °F 93% 29.75 in 10.0 mi SW 8.1 mph - N/A   Partly Cloudy
1:53 AM 55.4 °F 53.6 °F 94% 29.75 in 7.0 mi SSW 5.8 mph - N/A   Clear
2:53 AM 55.9 °F 54.0 °F 93% 29.75 in 7.0 mi SSW 8.1 mph - N/A   Clear
3:34 AM 55.4 °F 53.6 °F 94% 29.76 in 5.0 mi SW 6.9 mph - N/A   Partly Cloudy
3:53 AM 55.0 °F 54.0 °F 96% 29.75 in 5.0 mi SW 6.9 mph - N/A   Partly Cloudy
4:53 AM 53.1 °F 52.0 °F 96% 29.75 in 6.0 mi SW 4.6 mph - N/A   Clear
5:53 AM 52.0 °F 51.1 °F 97% 29.76 in 4.0 mi SSW 4.6 mph - N/A   Clear
6:07 AM 51.8 °F 50.0 °F 94% 29.76 in 2.5 mi SSW 3.5 mph - N/A   Clear
6:15 AM 50.0 °F 48.2 °F 94% 29.76 in 0.8 mi North 3.5 mph - N/A   Mist
6:27 AM 51.8 °F 50.0 °F 94% 29.76 in 1.2 mi Calm Calm - N/A   Partly Cloudy
6:36 AM 48.2 °F 48.2 °F 100% 29.76 in 0.2 mi Calm Calm - N/A Fog Fog
6:53 AM 48.0 °F 46.9 °F 96% 29.76 in 0.2 mi Calm Calm - N/A Fog Fog
7:53 AM 46.9 °F 46.0 °F 97% 29.77 in 0.2 mi Calm Calm - N/A Fog Fog
8:36 AM 51.8 °F 51.8 °F 100% 29.78 in 0.5 mi SSW 4.6 mph - N/A Fog Fog
8:50 AM 51.8 °F 51.8 °F 100% 29.78 in 1.2 mi SW 3.5 mph - N/A   Overcast
8:53 AM 52.0 °F 52.0 °F 100% 29.79 in 1.5 mi Calm Calm - N/A   Overcast
8:58 AM 51.8 °F 51.8 °F 100% 29.78 in 3.0 mi Calm Calm - N/A   Overcast
9:38 AM 53.6 °F 51.8 °F 94% 29.77 in 7.0 mi Calm Calm - N/A   Scattered Clouds
9:53 AM 53.1 °F 52.0 °F 96% 29.77 in 7.0 mi Calm Calm - N/A   Partly Cloudy
10:53 AM 55.9 °F 52.0 °F 87% 29.74 in 10.0 mi Calm Calm - N/A   Clear
11:53 AM 55.9 °F 52.0 °F 87% 29.72 in 10.0 mi Calm Calm - N/A   Clear
12:53 PM 59.0 °F 48.9 °F 69% 29.70 in 10.0 mi SSW 5.8 mph - N/A   Clear
1:53 PM 57.9 °F 50.0 °F 75% 29.68 in 10.0 mi South 5.8 mph - N/A   Clear
2:53 PM 55.9 °F 51.1 °F 84% 29.66 in 10.0 mi South 4.6 mph - N/A   Clear
3:53 PM 55.4 °F 51.8 °F 88% 29.66 in 10.0 mi South 4.6 mph - N/A   Clear
4:29 PM 55.4 °F 53.6 °F 94% 29.67 in 10.0 mi SSW 5.8 mph - N/A   Mostly Cloudy
4:53 PM 55.9 °F 53.1 °F 90% 29.68 in 10.0 mi SSW 9.2 mph - N/A   Scattered Clouds
5:53 PM 53.1 °F 51.1 °F 93% 29.69 in 7.0 mi Calm Calm - N/A   Partly Cloudy
6:27 PM 51.8 °F 50.0 °F 94% 29.70 in 1.8 mi Calm Calm - N/A   Clear
6:39 PM 53.6 °F 51.8 °F 94% 29.70 in 2.0 mi Calm Calm - N/A   Partly Cloudy
6:44 PM 53.6 °F 51.8 °F 94% 29.70 in 3.0 mi Calm Calm - N/A   Mostly Cloudy
6:53 PM 53.1 °F 52.0 °F 96% 29.70 in 5.0 mi South 3.5 mph - N/A   Mostly Cloudy
7:11 PM 51.8 °F 51.8 °F 100% 29.71 in 5.0 mi South 3.5 mph - N/A   Mostly Cloudy
7:23 PM 53.6 °F 51.8 °F 94% 29.71 in 4.0 mi Calm Calm - N/A   Mostly Cloudy
7:53 PM 54.0 °F 53.1 °F 97% 29.72 in 6.0 mi SSW 5.8 mph - N/A   Overcast
8:53 PM 55.0 °F 53.1 °F 93% 29.72 in 5.0 mi WSW 8.1 mph - N/A   Overcast
9:53 PM 54.0 °F 53.1 °F 97% 29.72 in 6.0 mi SW 6.9 mph - N/A   Overcast
10:45 PM 53.6 °F 53.6 °F 100% 29.73 in 1.8 mi Calm Calm - N/A   Overcast
10:48 PM 53.6 °F 53.6 °F 100% 29.73 in 0.8 mi Calm Calm - N/A   Overcast
10:53 PM 53.1 °F 53.1 °F 100% 29.73 in 0.5 mi Calm Calm - N/A Fog Fog
11:34 PM 53.6 °F 51.8 °F 94% 29.73 in 2.0 mi SSW 6.9 mph - N/A   Overcast
11:42 PM 53.6 °F 51.8 °F 94% 29.73 in 5.0 mi SW 5.8 mph - N/A   Overcast